Regional Weather Roundup
Issued by NWS

Home | Current Version | Previous Version | Graphics & Text | Print | Product List | Glossary On
Versions: 1 2 3 4 5 6 7 8 9 10 11 12 13 14 15 16 17 18 19 20 21 22 23 24 25 26 27 28 29 30 31 32 33 34 35 36 37 38 39 40 41 42 43 44 45 46 47 48 49 50
388
ASUS43 KLOT 221908
RWRIL

ILLINOIS REGIONAL WEATHER ROUNDUP
NATIONAL WEATHER SERVICE CHICAGO/ROMEOVILLE IL
200 PM CDT FRI SEP 22 2017

NOTE: "FAIR" INDICATES FEW OR NO CLOUDS BELOW 12,000 FEET WITH NO
SIGNIFICANT WEATHER AND/OR OBSTRUCTIONS TO VISIBILITY.

* THESE STATIONS ARE NOT UNDER NWS QUALITY CONTROL. THEY ALSO MAY NOT
  REPORT WEATHER SUCH AS PRECIPITATION OR FOG.

ILZ001-002-007-009-015-016-024-222000-
NORTHWEST ILLINOIS

CITY           SKY/WX    TMP DP  RH WIND       PRES   REMARKS
MOLINE         SUNNY     91  67  44 S9        30.00F HX  94
STERLING*      SUNNY     92  67  43 VRB7      30.03F HAZE    HX  95
SAVANNA*       SUNNY     92  70  48 S9        30.01F HX  97
$$

ILZ003-004-008-010-011-017-018-222000-
NORTH CENTRAL ILLINOIS

CITY           SKY/WX    TMP DP  RH WIND       PRES   REMARKS
ROCKFORD       MOSUNNY   91  66  43 SW9       30.04F HX  93
FREEPORT*      SUNNY     90  68  47 SW13      30.05S HX  94
ROCHELLE*      SUNNY     92  65  41 SW8G17    30.05S HX  93
DE KALB*       SUNNY     91  67  43 S13       30.06S HX  94
PERU*          SUNNY     90  65  42 SW9       30.04F HX  92
$$

ILZ005-006-012>014-019>023-222000-
NORTHEAST ILLINOIS

CITY           SKY/WX    TMP DP  RH WIND       PRES   REMARKS
CHICAGO-OHARE  MOSUNNY   93  62  35 SW10G17   30.04F HX  93
CHICAGO-MIDWAY MOSUNNY   93  65  39 SW10      30.04F HX  95
AURORA         SUNNY     91  67  44 SW7       30.05F HX  94
LANSING*       MOSUNNY   92  70  48 S10       30.06S HX  97
JOLIET*        SUNNY     94  68  43 SW7       30.05S HX  98
WAUKEGAN       SUNNY     88  69  53 SE12      30.04S HX  92
DUPAGE AIRPORT SUNNY     92  65  40 S9G17     30.04F HX  94
KANKAKEE*      SUNNY     91  68  47 W7        30.07S HX  94
WHEELING       SUNNY     94  64  37 S10       30.05F HX  95
MORRIS*        SUNNY     93  65  40 S7        30.03F HX  95
ROMEOVILLE*    SUNNY     91  66  43 S3        30.05F HX  94
NORTHERLY ISL    N/A     82  68  62 E5          N/A  HX  85
$$

LMZ740>746-222000-
SOUTHERN LAKE MICHIGAN

STATION/POSITION SKY/WX   TEMP    WIND        PRES    VSBY  WAVE
                          AIR SEA DIR/SP/G                  HT/PER
                          (F)     (DEG/KT/KT) (MB)    (MI)  (FT/S)
SOUTHERN BUOY              72 70  150/ 10/ 10 1018.0          1
WILMETTE HARBOR            76 73  120/  8/ 12   N/A           1/ 2
HARRISON CRIB              84     130/ 14/ 15   N/A
BURNHAM HARBOR             83                   N/A
CALUMET HARBOR             90     150/  5/ 10 1016.8F
BURNS HARBOR               85      40/  6/  8 1017.9F
MICHIGAN CITY              82      10/  4/  5   N/A
MICHIGAN CITY 6N           80 75   50/  2/  4   N/A           0
ST. JOSEPH                 81 72   80/  2/  2 1017.7          0
$$

ILZ025>027-034>036-040-047-049-050-058-095>099-222000-
WEST-CENTRAL ILLINOIS

CITY           SKY/WX    TMP DP  RH WIND       PRES   REMARKS
QUINCY         MOSUNNY   91  66  43 S13       30.02F HX  93
GALESBURG*     SUNNY     91  67  46 S16       30.03F HX  94
MACOMB*        SUNNY     93  65  39 S9        30.04F HX  94
JACKSONVILLE*  MOSUNNY   94  65  38 S12       30.02F HX  95
PITTSFIELD*    MOSUNNY   93  67  43 S12       30.03F HX  96
$$

ILZ028>032-037-038-041>044-048-051>054-059>061-222000-
CENTRAL ILLINOIS

CITY           SKY/WX    TMP DP  RH WIND       PRES   REMARKS
PONTIAC        SUNNY     93  65  40 SW9       30.05F HX  95
BLOOMINGTON    MOSUNNY   88  67  49 CALM      30.07F HX  91
DECATUR        SUNNY     93  65  39 SW8       30.05F HX  95
PEORIA         MOSUNNY   92  67  43 S9        30.02F HX  95
LACON*         SUNNY     91  67  45 SW6       30.03S HX  95
LINCOLN*       SUNNY     94  67  40 S9        30.03F HX  97
SPRINGFIELD    SUNNY     95  64  35 S10       30.03F HX  97
TAYLORVILLE    MOSUNNY   93  65  39 S8        30.04F HX  95
$$

ILZ033-039-045-046-055>057-062-063-222000-
EAST-CENTRAL ILLINOIS

CITY           SKY/WX    TMP DP  RH WIND       PRES   REMARKS
CHAMPAIGN      MOSUNNY   93  63  36 VRB5      30.05F HX  94
RANTOUL*       MOSUNNY   92  69  46 W3        30.06F HX  97
MATTOON        MOSUNNY   92  66  42 S8        30.04F HX  94
PARIS*         SUNNY     94  67  41 CALM      30.06F HX  97
$$

ILZ079-100>102-222000-
SOUTHWEST ILLINOIS

CITY           SKY/WX    TMP DP  RH WIND       PRES   REMARKS
ALTON          MOSUNNY   90  68  48 S6        30.03F HX  93
BELLEVILLE     MOSUNNY   94  64  36 SW9       30.01F HX  95
CAHOKIA*       MOSUNNY   96  60  30 S12G17    30.01F HX  96
SPARTA*        MOSUNNY   91  64  41 SE9       30.04F HX  92
$$

ILZ064>066-069>071-074>076-080>082-084>086-088>090-092>094-222000-
SOUTH-CENTRAL ILLINOIS

CITY           SKY/WX    TMP DP  RH WIND       PRES   REMARKS
CARBONDALE     SUNNY     88  68  51 VRB3      30.03F HX  91
CAIRO*         SUNNY     89  71  55 SE3       30.03F HX  95
EFFINGHAM*     MOSUNNY   94  65  37 SE7       30.06F HX  96
MARION         MOSUNNY   93  64  38 SE9       30.05F HX  95
MT. VERNON       N/A     90  68  48 VRB5      30.04F HX  94
CENTRALIA*     MOSUNNY   95  68  41 SE10      30.03F HX  99
SALEM*         PTSUNNY   94  62  34 SE6       30.04F HX  95
METROPOLIS*    MOSUNNY   92  68  45 SE5       30.04S HX  95
$$

ILZ067-068-072-073-078-083-087-091-222000-
SOUTHEAST ILLINOIS

CITY           SKY/WX    TMP DP  RH WIND       PRES   REMARKS
LAWRENCEVILLE  MOSUNNY   90  68  48 CALM      30.05F HX  94
FLORA*         MOSUNNY   94  67  40 CALM      30.04F HX  97
FAIRFIELD*     PTSUNNY   93  66  40 SW3       30.03F HX  95
HARRISBURG*    MOSUNNY   94  66  40 SE8       30.04F HX  96
ROBINSON*      SUNNY     90  68  48 CALM      30.06S HX  93
CARMI*         MOSUNNY   94  66  40 SE7       30.03F HX  97
$$

ABBREVIATIONS USED IN REMARKS
   TC - TEMPERATURE IN CELSIUS
  WCI - WIND CHILL INDEX
   HX - HEAT INDEX
  VSB - VISIBILITY
$$





USA.gov is the U.S. government's official web portal to all federal, state and local government web resources and services.